Regional Weather Roundup
Issued by NWS

Home | Current Version | Previous Version | Text Only | Print | Product List | Glossary Off
Versions: 1 2 3 4 5 6 7 8 9 10 11 12 13 14 15 16 17 18 19 20 21 22 23 24 25 26 27 28 29 30 31 32 33 34 35 36 37 38 39 40 41 42 43 44 45 46 47 48 49 50

000
ASUS45 KABQ 280301
RWRNM
NEW MEXICO REGIONAL WEATHER ROUNDUP
NATIONAL WEATHER SERVICE ALBUQUERQUE NM
900 PM MDT FRI MAY 27 2016

NOTE: "FAIR" MEANS FEW OR NO CLOUDS BELOW 12,000 FEET AGL WITH NO
       SIGNIFICANT WEATHER OR OBSTRUCTIONS TO VISION.

      THIS PRODUCT IS RELEASED AS TWO VERSIONS.  ONE VERSION NEAR
      THE TOP OF THE HOUR CONTAINING PRELIMINARY DATA FROM ALBUQUERQUE
      AND OTHER STATIONS.  A FINAL VERSION WITH ADDITIONAL DATA IS
      ISSUED ABOUT 10 MINUTES AFTER THE HOUR.

NMZ501-503-504-510>518-280400-
NORTHWEST PLATEAU/NORTHCENTRAL MOUNTAINS

CITY           SKY/WX    TMP DP  RH WIND       PRES   REMARKS
FARMINGTON     FAIR      60  26  27 N5        29.94R
SANTA FE       FAIR      57  30  35 N7        29.97R
TAOS           FAIR      45  34  65 NW9       30.06R

$$
NMZ402-403-502-505>509-280400-
WESTCENTRAL MOUNTAINS/SOUTHWEST MOUNTAINS

CITY           SKY/WX    TMP DP  RH WIND       PRES   REMARKS
GALLUP         MOCLDY    60  24  25 SW7       30.01R
GRANTS         FAIR      57  20  23 W7        30.03R
SILVER CITY      N/A     64  16  15 W7        30.00R

$$
NMZ407-409-411-412-280400-
SOUTHERN DESERTS

CITY           SKY/WX    TMP DP  RH WIND       PRES   REMARKS
LORDSBURG      FAIR      70  18  13 W7        29.92R
DEMING         FAIR      72  17  12 NW10      29.91R
HOLLOMAN AFB   FAIR      73  16  11 SW12      29.87R
ALAMOGORDO     FAIR      68  18  14 S7        29.89R
T OR C         FAIR      74  25  16 NW9       29.90R

$$
NMZ519>523-280400-
CENTRAL VALLEYS/CENTRAL HIGHLANDS

CITY           SKY/WX    TMP DP  RH WIND       PRES   REMARKS
ALBUQUERQUE    FAIR      70  24  17 NW14      29.94R
DOUBLE EAGLE   MOCLDY    66  25  20 W14       29.97R
CLINES CORNERS MOCLDY    58  23  26 W9        30.01R
BELEN          FAIR      68  20  16 W8        29.93R
SOCORRO        NOT AVBL

$$
NMZ524>526-539-540-280400-
SOUTHCENTRAL MOUNTAINS

CITY           SKY/WX    TMP DP  RH WIND       PRES   REMARKS
RUIDOSO        NOT AVBL

$$
NMZ527>531-280400-
NORTHEAST HIGHLANDS/NORTHEAST PLAINS

CITY           SKY/WX    TMP DP  RH WIND       PRES   REMARKS
LAS VEGAS      FAIR      48  36  63 E8        30.01R
RATON          FAIR      50  37  61 N7        29.98R
CLAYTON        MOCLDY    56  41  57 N8        29.94R

$$
NMZ532>537-280400-
EASTCENTRAL PLAINS

CITY           SKY/WX    TMP DP  RH WIND       PRES   REMARKS
TUCUMCARI      FAIR      70  36  28 NE10      29.85R
CANNON AFB     FAIR      66  32  28 CALM      29.85R
CLOVIS AIRPORT FAIR      63  36  36 CALM      29.85R

$$
NMZ028-029-538-280400-
SOUTHEAST PLAINS

CITY           SKY/WX    TMP DP  RH WIND       PRES   REMARKS
ROSWELL        FAIR      75  21  13 W10       29.82R
ARTESIA        FAIR      73  21  14 W12       29.83R
CARLSBAD       FAIR      73  17  12 W12       29.82R
HOBBS          FAIR      68  21  17 SW5       29.86R


$$



USA.gov is the U.S. government's official web portal to all federal, state and local government web resources and services.